Current Version              Previous Version:    01  02  03  04  05  06  07  08  09  10  11  12  13  14  15  16  17  18  19  20  21  22  23  24  25  26  27  28  29  30  
   31  32  33  34  35  36  37  38  39  40  41  42  43  44  45  46  47  48  49  50  51  52  53  54  55  56  57  58  59  60  

[Printable]
439
ASUS44 KFWD 200610
RWRTX
NORTH TEXAS HOURLY WEATHER ROUNDUP
NATIONAL WEATHER SERVICE FORT WORTH TX
1200 AM CST SAT DEC 20 2014

NOTE: "FAIR" INDICATES FEW OR NO CLOUDS BELOW 12,000 FEET WITH NO
SIGNIFICANT WEATHER AND/OR OBSTRUCTIONS TO VISIBILITY.

TXZ118-119-200700-
DALLAS/FORT WORTH METROPLEX

CITY           SKY/WX    TMP DP  RH WIND       PRES   REMARKS
DFW AIRPORT    CLOUDY    47  43  86 N6        30.21F
6HR MIN TEMP:  47; 6HR MAX TEMP:  48; 6HR PCP: TRACE;

DALLAS LOVE    CLOUDY    47  44  90 N5        30.22S FOG
6HR MIN TEMP:  47; 6HR MAX TEMP:  49;

FTW MEACHAM    CLOUDY    47  42  83 N5        30.22S HAZE
6HR MIN TEMP:  46; 6HR MAX TEMP:  49;

DAL-EXECUTIVE  CLOUDY    49  44  83 N5        30.21S
6HR MIN TEMP:  49; 6HR MAX TEMP:  50;

FTW-ALLIANCE   CLOUDY    45  42  89 CALM      30.22S
6HR MIN TEMP:  45; 6HR MAX TEMP:  48; 6HR PCP: TRACE;

FTW-SPINKS     CLOUDY    46  44  91 N5        30.23F
6HR MIN TEMP:  46; 6HR MAX TEMP:  48;

ARLINGTON      CLOUDY    49  43  80 N6        30.22S
6HR MIN TEMP:  48; 6HR MAX TEMP:  49;

GRAND PRAIRIE  CLOUDY    47  45  93 N5        30.23S
6HR MIN TEMP:  47; 6HR MAX TEMP:  48;

ADDISON        CLOUDY    47  47 100 N5        30.23F
6HR MIN TEMP:  47; 6HR MAX TEMP:  48;

MESQUITE       CLOUDY    47  46  93 N3        30.22F
6HR MIN TEMP:  47; 6HR MAX TEMP:  48;

LANCASTER      CLOUDY    47  44  89 N5        30.23S FOG
6HR MIN TEMP:  47; 6HR MAX TEMP:  48;

$$

TXZ091>094-102>105-117-120-121-131>134-200700-
NORTH CENTRAL TEXAS

CITY           SKY/WX    TMP DP  RH WIND       PRES   REMARKS
SHRMAN/DENISON CLOUDY    44  43  96 CALM      30.23S
6HR MIN TEMP:  44; 6HR MAX TEMP:  45;

GAINESVILLE    CLOUDY    43  40  88 CALM      30.24F
6HR MIN TEMP:  43; 6HR MAX TEMP:  44;

BOWIE          CLOUDY    43  40  90 CALM      30.21S
6HR MIN TEMP:  43; 6HR MAX TEMP:  44;

BRIDGEPORT     CLOUDY    45  41  85 N3        30.24S
6HR MIN TEMP:  45; 6HR MAX TEMP:  47;

DECATUR        CLOUDY    44  40  85 CALM      30.21F
6HR MIN TEMP:  44; 6HR MAX TEMP:  45;

DENTON         CLOUDY    45  41  86 N6        30.21F
6HR MIN TEMP:  45; 6HR MAX TEMP:  47;

MCKINNEY       CLOUDY    46  43  89 N7        30.21F
6HR MIN TEMP:  46; 6HR MAX TEMP:  47;

GREENVILLE     CLOUDY    46  43  87 CALM      30.22S
ROCKWALL       CLOUDY    46  46  97 CALM      30.21S FOG
6HR MIN TEMP:  46; 6HR MAX TEMP:  47;

TERRELL        CLOUDY    49  45  86 N6        30.22S
6HR MIN TEMP:  49; 6HR MAX TEMP:  50;

WAXAHACHIE     CLOUDY    47  47 100 N6        30.23S FOG
6HR MIN TEMP:  47; 6HR MAX TEMP:  48;

CLEBURNE       CLOUDY    45  45 100 N6        30.23S
GRANBURY       CLOUDY    47  44  88 N3        30.24F
6HR MIN TEMP:  47; 6HR MAX TEMP:  49;

$$

TXZ083>090-098>101-113>116-127>130-139>142-154-155-200700-
WESTERN NORTH TEXAS

CITY           SKY/WX    TMP DP  RH WIND       PRES   REMARKS
WICHITA FALLS  CLOUDY    44  40  85 CALM      30.22S
6HR MIN TEMP:  43; 6HR MAX TEMP:  45;

WF-KICKAPOO    CLOUDY    44  40  85 CALM      30.24S
6HR MIN TEMP:  44; 6HR MAX TEMP:  45;

VERNON         CLOUDY    45  39  80 CALM      30.22F
6HR MIN TEMP:  32; 6HR MAX TEMP:  52;

ABILENE        CLOUDY    44  41  89 S3        30.21S
6HR MIN TEMP:  44; 6HR MAX TEMP:  46;

ABILENE-DYESS  CLOUDY    45  38  76 CALM      30.20S
6HR MIN TEMP:  44; 6HR MAX TEMP:  46;

BRECKENRIDGE   CLOUDY    46  42  86 E6        30.21S
6HR MIN TEMP:  46; 6HR MAX TEMP:  49;

GRAHAM         CLOUDY    44  40  86 CALM      30.20F
6HR MIN TEMP:  44; 6HR MAX TEMP:  46;

MINERAL WELLS  CLOUDY    45  40  82 CALM      30.21S
6HR MIN TEMP:  45; 6HR MAX TEMP:  48;

STEPHENVILLE   CLOUDY    46  42  86 N3        30.23F
6HR MIN TEMP:  46; 6HR MAX TEMP:  47;

COMANCHE       CLOUDY    45  45 100 NE5       30.20F FOG
6HR MIN TEMP:  45; 6HR MAX TEMP:  47;

BROWNWOOD      CLOUDY    46  41  81 N5        30.21S
COLEMAN        CLOUDY    46  44  91 NE6       30.20S
6HR MIN TEMP:  46; 6HR MAX TEMP:  48;

BRADY          CLOUDY    46  43  87 NE7       30.18S
$$

TXZ143>147-156>162-174-175-200700-
CENTRAL TEXAS

CITY           SKY/WX    TMP DP  RH WIND       PRES   REMARKS
WACO           CLOUDY    48  45  89 N7        30.21S
6HR MIN TEMP:  48; 6HR MAX TEMP:  49;

WACO-MCGREGOR  CLOUDY    48  43  81 N8        30.22S
6HR MIN TEMP:  48; 6HR MAX TEMP:  48;

HILLSBORO      CLOUDY    48  45  90 N9        30.20F FOG
6HR MIN TEMP:  48; 6HR MAX TEMP:  48;

CORSICANA      CLOUDY    49  45  86 N7        30.22S
6HR MIN TEMP:  48; 6HR MAX TEMP:  49;

MEXIA          CLOUDY    47  46  95 N5        30.20S
6HR MIN TEMP:  47; 6HR MAX TEMP:  47;

HEARNE         CLOUDY    48  47  95 CALM      30.21S FOG
6HR MIN TEMP:  48; 6HR MAX TEMP:  51;

CAMERON        CLOUDY    50  48  95 N7        30.20S FOG
6HR MIN TEMP:  49; 6HR MAX TEMP:  50;

TEMPLE         CLOUDY    48  41  76 N8        30.19F
6HR MIN TEMP:  46; 6HR MAX TEMP:  48;

KILLEEN        CLOUDY    46  45  93 N8        30.20F
6HR MIN TEMP:  45; 6HR MAX TEMP:  47; 6HR PCP: TRACE;

KILLEEN-SKYLRK CLOUDY    46  39  76 N7        30.17S
6HR MIN TEMP:  46; 6HR MAX TEMP:  48;

FORT HOOD      CLOUDY    46  45  93 N8        30.19F
6HR MIN TEMP:  46; 6HR MAX TEMP:  47;

GATESVILLE     CLOUDY    46  45  93 N3        30.23S
HAMILTON       CLOUDY    46  46 100 N5        30.21S
6HR MIN TEMP:  46; 6HR MAX TEMP:  47;

LAMPASAS       CLOUDY    45  44  95 CALM      30.20
6HR MIN TEMP:  45; 6HR MAX TEMP:  49;

$$

TXZ095>097-106>112-122>126-135>138-148>153-164>167-200700-
EAST TEXAS

CITY           SKY/WX    TMP DP  RH WIND       PRES   REMARKS
PARIS          CLOUDY    45  41  87 CALM      30.23S
6HR MIN TEMP:  45; 6HR MAX TEMP:  46;

SULPHUR SPRNGS CLOUDY    46  45  95 CALM      30.24S FOG
6HR MIN TEMP:  46; 6HR MAX TEMP:  47;

MOUNT PLEASANT CLOUDY    46  44  94 CALM      30.23S
6HR MIN TEMP:  46; 6HR MAX TEMP:  46;

MINEOLA        CLOUDY    46  46 100 CALM      30.22S FOG
TYLER          CLOUDY    47  45  93 N6        30.20F FOG
6HR MIN TEMP:  47; 6HR MAX TEMP:  47;

LONGVIEW       CLOUDY    47  44  90 NE3       30.20R FOG
6HR MIN TEMP:  47; 6HR MAX TEMP:  49;

MARSHALL       CLOUDY    48  46  90 CALM      30.22F
6HR MIN TEMP:  48; 6HR MAX TEMP:  49;

ATHENS         CLOUDY    45  45 100 NE7       30.20S FOG
PALESTINE      CLOUDY    47  47  97 N7        30.21R FOG
JACKSONVILLE   FOG       47  46  99 NE3       30.20R VSB 1/4
HENDERSON      CLOUDY    46  46 100 N5        30.20S FOG
6HR MIN TEMP:  46; 6HR MAX TEMP:  48;

NACOGDOCHES    CLOUDY    46  45  93 N5        30.18F
6HR MIN TEMP:  46; 6HR MAX TEMP:  48;

LUFKIN         CLOUDY    51  46  83 N6        30.17S
6HR MIN TEMP:  51; 6HR MAX TEMP:  53; 6HR PCP: TRACE;

$$

SUPPLEMENTAL OBSERVATIONS (CENTRAL)

CITY           SKY/WX    TMP DP  RH WIND       PRES   REMARKS
CADDO GRASSLND   N/A     45  41  87 N2          N/A
PAT MAYSE LAKE   N/A     45  43  93 CALM        N/A
PALESTINE        N/A     46  43  87 NE7         N/A
MCGREGOR         N/A     48  45  87 N6          N/A
TEMPLE           N/A     48  45  87 N1          N/A
$$

SUPPLEMENTAL OBSERVATIONS (WEST)

CITY           SKY/WX    TMP DP  RH WIND       PRES   REMARKS
MILLERS CREEK    N/A     45  39  81 E3          N/A